This demonstration page uses our WeatherBlox Daily Observations layout. Learn more.

Left ArrowRight Arrow

44.8408, -93.29828

Hourly Observations for June 14, 2017

Temp ( °F °C ) Dew Point ( °F °C ) Humidity (%) Winds ( mph kmh ) Pressure ( in mb ) Visibility ( mi km ) Precip ( " mm )
12:39 am 00:39 Cloudy with Thunderstorms 77 25 65 18.3 66 66 SSE 17 28 29.77 1008 8 13 0.00 0.03
12:53 am 00:53 Cloudy with Thunderstorms 67 19.4 62 16.7 84 84 WSW 20 31 29.80 1009 4 6 0.09 2.29
1:39 am 01:39 Cloudy with Light Rain 66 18.9 62 16.7 87 87 SW 7 11 29.77 1008 10 16 0.11 2.79
1:53 am 01:53 Cloudy with Light Rain 66 18.9 63 17.2 90 90 SW 7 11 29.77 1008 10 16 0.11 2.79
2:53 am 02:53 Mostly Clear 66 18.9 63 17.2 90 90 E 10 17 29.72 1007 10 16 0.02 0.51
3:14 am 03:14 Cloudy 66 18.9 63 17.2 90 90 E 17 28 29.68 1005 10 16 0.00 0.00
3:53 am 03:53 Cloudy 66 18.9 62 16.7 87 87 ESE 12 19 29.69 1006 10 16 0.00 0.00
4:20 am 04:20 Mostly Cloudy 66 18.9 63 17.2 90 90 SSE 12 19 29.74 1007 10 16 0.00 0.00
4:53 am 04:53 Mostly Cloudy 66 18.9 62 16.7 87 87 SSE 13 20 29.76 1008 10 16 0.00 0.00
5:43 am 05:43 Cloudy with Light Rain 66 18.9 62 16.7 87 87 ESE 22 35 29.71 1006 10 16 0.00 0.03
5:53 am 05:53 Cloudy with Light Rain 67 19.4 62 16.7 84 84 ESE 22 35 29.68 1005 10 16 0.00 0.03
6:53 am 06:53 Mostly Cloudy 68 20 62 16.7 81 81 S 6 9 29.71 1006 10 16 0.00 0.03
7:53 am 07:53 Mostly Cloudy 69 20.6 62 16.7 78 78 S 7 11 29.71 1006 10 16 0.00 0.00
8:53 am 08:53 Mostly Sunny 72 22.2 62 16.7 71 71 SW 7 11 29.71 1006 10 16 0.00 0.00
9:53 am 09:53 Partly Cloudy 75 23.9 62 16.7 64 64 SW 12 19 29.71 1006 10 16 0.00 0.00
10:53 am 10:53 Mostly Cloudy 77 25 63 17.2 62 62 SW 14 22 29.73 1007 10 16 0.00 0.00
11:53 am 11:53 Mostly Cloudy 77 25 63 17.2 62 62 SW 15 24 29.73 1007 10 16 0.00 0.00
12:53 pm 12:53 Mostly Cloudy 77 25 62 16.7 60 60 SW 7 11 29.73 1007 10 16 0.00 0.00
1:53 pm 13:53 Mostly Cloudy 80 26.7 63 17.2 56 56 S 13 20 29.72 1007 10 16 0.00 0.00
2:53 pm 14:53 Partly Cloudy 81 27.2 63 17.2 54 54 S 13 20 29.70 1006 10 16 0.00 0.00
3:53 pm 15:53 Partly Cloudy 82 27.8 62 16.7 51 51 WSW 9 15 29.68 1005 10 16 0.00 0.00
4:53 pm 16:53 Mostly Cloudy 82 27.8 63 17.2 53 53 W 10 17 29.67 1005 10 16 0.00 0.00
5:53 pm 17:53 Partly Cloudy 84 28.9 63 17.2 49 49 SW 9 15 29.67 1005 10 16 0.00 0.00
6:53 pm 18:53 Partly Cloudy 84 28.9 62 16.7 48 48 W 10 17 29.68 1005 10 16 0.00 0.00
7:53 pm 19:53 Mostly Sunny 82 27.8 55 12.8 40 40 WNW 12 19 29.70 1006 10 16 0.00 0.00
8:53 pm 20:53 Mostly Sunny 80 26.7 53 11.7 39 39 W 12 19 29.72 1007 10 16 0.00 0.00
9:53 pm 21:53 Mostly Clear 77 25 53 11.7 43 43 W 5 7 29.75 1008 10 16 0.00 0.00
10:53 pm 22:53 Mostly Clear 77 25 53 11.7 43 43 WSW 6 9 29.75 1008 10 16 0.00 0.00
11:53 pm 23:53 Clear 74 23.3 55 12.8 52 52 SW 6 9 29.75 1008 10 16 0.00 0.00

Powered by AerisWeather